FW5316 Weather Reports


Display with metric or nautical units.
time (UTC)temp
F
wind
direction
speed
MPH
gust
MPH
rain 1hr
in
rain 24hr
in
rain mn
in
humidity
%
barometer
mb
20260509113517 63 242 2.0 4.0 0.00 0.00 0.00 81 1013.8
20260509112536 63 257 1.0 4.0 0.00 0.00 0.00 81 1013.8
20260509111516 63 265 2.0 6.0 0.00 0.00 0.00 81 1013.9
20260509110516 63 267 2.0 6.0 0.00 0.00 0.00 81 1014.0
20260509105516 63 273 2.0 4.0 0.00 0.00 0.00 81 1014.0
20260509104516 63 0.0 0.0 0.00 0.00 0.00 81 1013.9
20260509103516 63 0.0 0.0 0.00 0.00 0.00 81 1013.9
20260509102536 63 55 0.0 4.0 0.00 0.00 0.00 81 1014.0
20260509101516 63 53 0.0 3.0 0.00 0.00 0.00 81 1014.0
20260509100537 63 29 2.0 4.0 0.00 0.00 0.00 81 1014.0
20260509095517 63 18 0.0 3.0 0.00 0.00 0.00 81 1014.0
20260509094517 63 0.0 3.0 0.00 0.00 0.00 82 1014.1
20260509093516 63 6 2.0 4.0 0.00 0.00 0.00 82 1014.2
20260509092517 63 5 1.0 3.0 0.00 0.00 0.00 82 1014.2
20260509091516 63 324 1.0 2.0 0.00 0.00 0.00 81 1014.3
20260509090516 63 0.0 1.0 0.00 0.00 0.00 81 1014.4
20260509085516 63 326 0.0 2.0 0.00 0.00 0.00 81 1014.5
20260509084516 63 324 2.0 4.0 0.00 0.00 0.00 82 1014.6
20260509083516 63 0.0 4.0 0.00 0.00 0.00 82 1014.6
20260509082516 63 0.0 3.0 0.00 0.00 0.00 82 1014.5
20260509081557 63 93 2.0 4.0 0.00 0.00 0.00 81 1014.6
20260509080516 63 159 1.0 4.0 0.00 0.00 0.00 81 1014.7
20260509075536 64 209 0.0 2.0 0.00 0.00 0.00 81 1014.8
20260509074516 64 0.0 0.0 0.00 0.00 0.00 81 1014.8
20260509073516 64 0.0 0.0 0.00 0.00 0.00 81 1014.8
20260509072517 64 0.0 1.0 0.00 0.00 0.00 81 1014.9
20260509071516 64 213 1.0 5.0 0.00 0.00 0.00 81 1015.0
20260509070536 64 221 1.0 4.0 0.00 0.00 0.00 81 1015.1
20260509065517 64 0.0 1.0 0.00 0.00 0.00 81 1015.2
20260509064558 64 224 0.0 3.0 0.00 0.00 0.00 81 1015.2
20260509063537 64 0.0 0.0 0.00 0.00 0.00 81 1015.1
20260509062517 64 0.0 0.0 0.00 0.00 0.00 81 1015.0
20260509061517 64 318 0.0 2.0 0.00 0.00 0.00 81 1015.1
20260509060517 64 318 1.0 2.0 0.00 0.00 0.00 81 1015.2
20260509055517 64 321 0.0 3.0 0.00 0.00 0.00 81 1015.3
20260509054537 64 323 1.0 3.0 0.00 0.00 0.00 81 1015.3
20260509053517 63 327 1.0 3.0 0.00 0.00 0.00 81 1015.3
20260509052516 63 329 0.0 3.0 0.00 0.00 0.00 81 1015.4
20260509051517 63 334 2.0 5.0 0.00 0.00 0.00 81 1015.4
20260509050517 63 297 1.0 4.0 0.00 0.00 0.00 81 1015.5
20260509045516 64 346 0.0 3.0 0.00 0.00 0.00 80 1015.4
20260509044517 63 329 2.0 4.0 0.00 0.00 0.00 80 1015.4
20260509043537 63 335 2.0 4.0 0.00 0.00 0.00 80 1015.3
20260509042516 64 337 2.0 4.0 0.00 0.00 0.00 80 1015.3
20260509041516 64 339 2.0 4.0 0.00 0.00 0.00 80 1015.2
20260509040537 64 308 0.0 4.0 0.00 0.00 0.00 80 1015.1
20260509035516 64 284 1.0 5.0 0.00 0.00 0.00 80 1015.1
20260509034516 64 282 2.0 4.0 0.00 0.00 0.00 80 1015.0
20260509033536 64 269 2.0 6.0 0.00 0.00 0.00 79 1014.9
20260509032516 64 280 2.0 7.0 0.00 0.00 0.00 78 1014.9
20260509031517 65 287 4.0 8.0 0.00 0.00 0.00 78 1014.9
20260509030516 65 306 4.0 8.0 0.00 0.00 0.00 77 1014.8
20260509025516 66 290 3.0 7.0 0.00 0.00 0.00 76 1014.7
20260509024516 66 308 4.0 8.0 0.00 0.00 0.00 76 1014.6
20260509023516 67 265 2.0 6.0 0.00 0.00 0.00 75 1014.5
20260509022516 68 277 4.0 9.0 0.00 0.00 0.00 74 1014.5
20260509021517 68 283 4.0 9.0 0.00 0.00 0.00 73 1014.4
20260509020517 69 299 4.0 9.0 0.00 0.00 0.00 72 1014.3
20260509015536 70 303 3.0 8.0 0.00 0.00 0.00 71 1014.2
20260509014516 70 298 4.0 8.0 0.00 0.00 0.00 70 1014.1
20260509013516 71 306 4.0 10.0 0.00 0.00 0.00 70 1014.2
20260509012516 71 297 3.0 8.0 0.00 0.00 0.00 69 1014.2
20260509011516 71 300 4.0 9.0 0.00 0.00 0.00 69 1014.2
20260509010524 71 295 3.0 8.0 0.00 0.00 0.00 68 1014.1
20260509005536 72 247 3.0 8.0 0.00 0.00 0.00 68 1014.2
20260509004557 72 233 4.0 9.0 0.00 0.00 0.00 67 1014.1
20260509003536 73 255 4.0 9.0 0.00 0.00 0.00 66 1014.2
20260509002516 73 273 3.0 8.0 0.00 0.00 0.00 66 1014.2
20260509001522 73 276 3.0 9.0 0.00 0.00 0.00 65 1014.1
20260509000517 74 283 3.0 9.0 0.00 0.00 0.00 65 1014.2
20260508235516 74 264 3.0 9.0 0.00 0.00 0.00 64 1014.3
20260508234516 74 266 3.0 9.0 0.00 0.00 0.00 64 1014.3
20260508233516 75 265 4.0 9.0 0.00 0.00 0.00 63 1014.3
20260508232516 75 275 4.0 9.0 0.00 0.00 0.00 62 1014.4
20260508231516 75 266 3.0 10.0 0.00 0.00 0.00 62 1014.4
20260508230518 75 304 5.0 10.0 0.00 0.00 0.00 62 1014.4
20260508225516 76 241 4.0 11.0 0.00 0.00 0.00 61 1014.5
20260508224517 76 297 6.0 14.0 0.00 0.00 0.00 61 1014.7
20260508223516 76 251 4.0 11.0 0.00 0.00 0.00 60 1014.8
20260508222516 76 259 5.0 11.0 0.00 0.00 0.00 61 1014.9
20260508221516 77 242 5.0 11.0 0.00 0.00 0.00 60 1015.0
20260508220516 77 213 6.0 12.0 0.00 0.00 0.00 59 1015.1
20260508215536 78 242 5.0 11.0 0.00 0.00 0.00 59 1015.2
20260508214536 78 242 5.0 12.0 0.00 0.00 0.00 58 1015.3
20260508213536 79 240 7.0 14.0 0.00 0.00 0.00 57 1015.3
20260508212516 79 252 5.0 11.0 0.00 0.00 0.00 57 1015.3
20260508211516 80 234 5.0 12.0 0.00 0.00 0.00 56 1015.3
20260508210516 80 256 4.0 12.0 0.00 0.00 0.00 56 1015.2
20260508205537 80 234 4.0 11.0 0.00 0.00 0.00 56 1015.3
20260508204536 81 213 6.0 15.0 0.00 0.00 0.00 55 1015.4
20260508203516 81 256 4.0 8.0 0.00 0.00 0.00 56 1015.5
20260508202516 80 255 5.0 11.0 0.00 0.00 0.00 57 1015.5
20260508201516 78 268 5.0 11.0 0.00 0.00 0.00 59 1015.5
20260508200516 77 228 6.0 13.0 0.00 0.00 0.00 61 1015.5
20260508195516 75 209 7.0 14.0 0.00 0.00 0.00 61 1015.5
20260508194515 76 186 8.0 15.0 0.00 0.00 0.00 61 1015.7
20260508193556 76 197 7.0 12.0 0.00 0.00 0.00 61 1015.9
20260508192516 77 212 7.0 13.0 0.00 0.00 0.00 60 1015.9
20260508191536 76 219 6.0 12.0 0.00 0.00 0.00 61 1016.0
20260508190536 77 216 5.0 13.0 0.00 0.00 0.00 60 1016.1
20260508185536 77 211 6.0 12.0 0.00 0.00 0.00 60 1016.1
20260508184556 77 216 5.0 13.0 0.00 0.00 0.00 60 1016.2
20260508183516 78 212 7.0 12.0 0.00 0.00 0.00 59 1016.3
20260508182515 78 214 4.0 9.0 0.00 0.00 0.00 59 1016.5
20260508181515 78 220 5.0 12.0 0.00 0.00 0.00 59 1016.5
20260508180516 77 235 4.0 9.0 0.00 0.00 0.00 60 1016.5
20260508175515 77 234 3.0 7.0 0.00 0.00 0.00 61 1016.6
20260508174515 75 342 2.0 6.0 0.00 0.00 0.00 64 1016.6
20260508173535 74 65 2.0 5.0 0.00 0.00 0.00 65 1016.6
20260508172516 73 346 3.0 9.0 0.00 0.00 0.00 68 1016.7
20260508171517 70 297 3.0 7.0 0.00 0.00 0.00 70 1016.7
20260508170515 69 334 3.0 8.0 0.00 0.00 0.00 72 1016.7
20260508165515 67 349 2.0 5.0 0.00 0.00 0.00 74 1016.7
20260508164536 66 85 1.0 3.0 0.00 0.00 0.00 75 1016.7
20260508163515 66 72 1.0 3.0 0.00 0.00 0.00 75 1016.7
20260508162516 65 336 1.0 4.0 0.00 0.00 0.00 77 1016.8
20260508161516 65 354 2.0 5.0 0.00 0.00 0.00 77 1016.8
20260508160515 64 330 1.0 3.0 0.00 0.00 0.00 78 1016.8
20260508155536 64 175 1.0 5.0 0.00 0.00 0.00 77 1016.8
20260508154516 64 174 2.0 4.0 0.00 0.00 0.00 78 1016.8
20260508153515 63 0.0 0.0 0.00 0.00 0.00 79 1016.9
20260508152516 63 0.0 0.0 0.00 0.00 0.00 79 1017.0
20260508151515 63 0.0 0.0 0.00 0.00 0.00 80 1017.1
20260508150515 63 184 0.0 1.0 0.00 0.00 0.00 80 1017.0
20260508145515 62 0.0 0.0 0.00 0.00 0.00 81 1017.0
20260508144515 62 184 1.0 2.0 0.00 0.00 0.00 81 1016.9
20260508143515 62 0.0 0.0 0.00 0.00 0.00 81 1016.9
20260508142515 62 0.0 0.0 0.00 0.00 0.00 81 1016.9
20260508141515 62 0.0 0.0 0.00 0.00 0.00 81 1016.7
20260508140535 62 0.0 0.0 0.00 0.00 0.00 81 1016.8
20260508135515 62 0.0 0.0 0.00 0.00 0.00 82 1016.7
20260508134515 62 0.0 0.0 0.00 0.00 0.00 82 1016.6
20260508133535 62 0.0 0.0 0.00 0.00 0.00 82 1016.5
20260508132515 62 0.0 0.0 0.00 0.00 0.00 82 1016.4
20260508131515 62 0.0 0.0 0.00 0.00 0.00 82 1016.4
20260508130515 62 0.0 2.0 0.00 0.00 0.00 82 1016.3
20260508125515 62 244 1.0 3.0 0.00 0.00 0.00 82 1016.3
20260508124515 62 254 0.0 3.0 0.00 0.00 0.00 82 1016.2
20260508123515 62 259 1.0 2.0 0.00 0.00 0.00 82 1016.2
20260508122515 62 261 1.0 3.0 0.00 0.00 0.00 82 1016.1
20260508121535 62 256 0.0 2.0 0.00 0.00 0.00 82 1016.1
20260508120535 62 0.0 4.0 0.00 0.00 0.00 82 1016.2
20260508115515 62 237 2.0 4.0 0.00 0.00 0.00 82 1016.2
20260508114515 62 219 1.0 2.0 0.00 0.00 0.00 82 1016.1